Regional Weather Roundup
Issued by NWS Upton, NY

Current Version | Previous Version | Text Only | Print | Product List | Glossary On
Versions: 1 2 3 4 5 6 7 8 9 10 11 12 13 14 15 16 17 18 19 20 21 22 23 24 25 26 27
000 ASUS41 KOKX 192308 RWROKX REGIONAL WEATHER ROUNDUP NATIONAL WEATHER SERVICE NEW YORK NY 600 PM EST THU JAN 19 2017 NOTE: "FAIR" INDICATES FEW OR NO CLOUDS BELOW 12,000 FEET WITH NO SIGNIFICANT WEATHER AND/OR OBSTRUCTIONS TO VISIBILITY. NYZ071-072-176-178-NJZ106-104-200000- NEW YORK CITY METRO AREA CITY SKY/WX TMP DP RH WIND PRES REMARKS Central Park CLOUDY 44 33 65 VRB5 30.03R Wall St Helipt N/A 45 33 63 W7G17 30.03R Bronx Bot Gard NOT AVBL LaGuardia APRT MOCLDY 45 33 63 NW10 30.01R Kennedy INTL CLOUDY 46 31 55 NW10 30.02R Breezy Point N/A 43 N/A N/A W7 N/A Newark/Liberty CLOUDY 44 33 65 W10 30.03R Teterboro CLOUDY 44 33 65 W9 30.00S $$ NYZ177-179-078>081-200000- LONG ISLAND NEW YORK CITY SKY/WX TMP DP RH WIND PRES REMARKS Jones Beach N/A 43 N/A N/A NW8 N/A Matinecock PT NOT AVBL Farmingdale CLOUDY 45 33 63 VRB3 30.00R MacArthur/ISP CLOUDY 45 36 70 W7 29.99R Shirley CLOUDY 44 36 73 NW5 30.00R Westhampton PTCLDY 35 31 85 CALM 30.01R Southampton NOT AVBL Bridgehampton NOT AVBL East Hampton CLOUDY 37 34 86 CALM 29.99R Montauk N/A 44 36 73 CALM 30.00R $$ NYZ052-065-067-200000- HUDSON VALLEY CITY SKY/WX TMP DP RH WIND PRES REMARKS White Plains CLOUDY 41 34 76 W3 29.99R Newburgh NOT AVBL Montgomery CLOUDY 43 33 68 NW5 29.98R Poughkeepsie CLOUDY 42 33 70 N7 30.00R Albany CLOUDY 39 32 76 W9 30.03R WCI 33 $$ NJZ001-105-106-008-010-013-015-019>022-104-200000- NEW JERSEY CITY SKY/WX TMP DP RH WIND PRES REMARKS Newark/Liberty CLOUDY 44 33 65 W10 30.03R Teterboro CLOUDY 44 33 65 W9 30.00S Caldwell CLOUDY 40 32 73 W3 30.03R Somerville CLOUDY 44 32 62 N5 30.02R Linden CLOUDY 44 33 64 N5 30.02R Sussex CLOUDY 36 31 82 CALM 30.02 Andover N/A 40 31 70 CALM 30.02R Trenton MOCLDY 43 34 70 N5 30.02R Millville PTCLDY 39 35 86 NW3 30.03R Atlantic City CLOUDY 45 35 68 NW6 30.03R Wrightstown CLOUDY 43 35 71 CALM 30.01R Toms River CLOUDY 44 35 70 NW9 30.04R Belmar CLOUDY 43 34 70 W9 30.03R $$ PAZ047>061-062-071-200000- EASTERN PENNSYLVANIA CITY SKY/WX TMP DP RH WIND PRES REMARKS Philadelphia CLOUDY 46 34 62 N3 30.05R Allentown CLOUDY 43 32 65 W5 30.03R Scranton CLOUDY 40 33 76 N5 30.02R $$ CTZ002-004>006-009-010-012-RIZ004-006-007-MAZ004-011-015-200000- SOUTHERN NEW ENGLAND IN CT CITY SKY/WX TMP DP RH WIND PRES REMARKS Bradley INTL CLOUDY 41 32 70 W9 30.01R Hartford CLOUDY 43 32 65 NW10 30.01R Danbury CLOUDY 43 33 68 N3 30.01R Wtrbury/Oxford MOCLDY 41 28 60 N9 29.99R Bridgeport CLOUDY 46 34 62 NW3 30.00R Meriden CLOUDY 44 31 60 N10 30.00R New Haven CLOUDY 45 32 60 NW7 29.99R Chester CLOUDY 43 32 65 N7 29.99R Groton CLOUDY 44 32 62 N8 29.99R Wilimantic CLOUDY 44 33 65 W6 30.00R IN RI CITY SKY/WX TMP DP RH WIND PRES REMARKS Providence CLOUDY 44 33 65 N7 29.97R Block Island NOT AVBL Westerly CLOUDY 45 31 58 NW5 29.99R IN MA CITY SKY/WX TMP DP RH WIND PRES REMARKS Boston CLOUDY 44 32 62 NW9 29.97R Worcester CLOUDY 37 30 75 W6 29.96R WCI 32 Westfield CLOUDY 40 33 76 W9 30.00R WCI 34 Provincetown CLEAR 41 33 73 NW12 29.97R Nantucket PTCLDY 38 33 82 N5 29.96R WCI 34 $$ ANZ330-335-338-340-345-350-353-355-200000- COASTAL MARINE OBSERVATIONS STATION/POSITION TIME SKY/WX TEMP WIND PRES VSBY WAVE AIR SEA DIR/SP/G HT/PER (UTC) (F) (DEG/KT/KT) (MB) (MI) (FT/S) NY HARB ENTRANCE 2250 44 44 310/ 12/ 14 1016.1 5/11 20 S FIRE ISLAND 2250 45 45 320/ 14/ 16 1015.7 6/11 GREAT SOUTH BAY NOT AVBL 23 SSW MONTAUK P 2150 45 48 300/ 10/ 12 1015.2 5/10 15 E BARNEGAT LI 2230 48 N/A 5/11 HUDSON CANYON 2150 47 51 1015.2 8/11 KINGS POINT 2224 43 39 1015.8 EXECUTION ROCKS 2245 43 260/ 4/ 6 N/A CENTRAL LI SOUND 2230 43 290/ 8/ 10 N/A 1 EASTERN LI SOUND NOT AVBL ROBBINS REEF 2224 44 310/ 8/ 10 1016.5 $$ >>>>>>>>>>>>>>>>>>>>>>>>>>>> KEY <<<<<<<<<<<<<<<<<<<<<<<<<<< > < > SKY/WX - Sky Condition/Present Weather < > TMP - Temperature in Fahrenheit < > DP - Dew Point in Fahrenheit < > RH - Relative Humidity in Percent < > WIND - Direction (from) and Speed in MPH < > PRES - Mean Sea Level Pressure (inches of Hg) < > WCI - Wind Chill Index < > VSB - VISIBILITY IN MILES < > HX - HEAT INDEX < > TC - TEMPERATURE IN CELSIUS < > VRB - VARIABLE WIND DIRECTION < > < >>>>>>>>>>>>>>>>>>>>>>>>>>>> KEY <<<<<<<<<<<<<<<<<<<<<<<<<<<

USA.gov is the U.S. government's official web portal to all federal, state and local government web resources and services.